Vertical_Velocity
1 1 4 5 0 -2 -6 -16 -0 -2 -1 1 -0 -1 -1 1 -0 -3 -0 -2 -2 -0 0 -0 -1 -0 -0 -1 0 -2 1 -1 1 -0 1 0 -1 1 0 -0 0 0 -1 0 -0 0 -0 0 1
1 1 4 4 -1 2 -12 -6 -10 4 1 1 1 -2 2 -3 -4 1 -3 -3 -2 0 -0 0 -1 -1 0 -0 -0 -0 -0 -0 0 0 1 1 1 2 1 2 0 0 -0 1 1 1 -0 -0 1
4 3 6 5 -3 -14 -11 -4 2 7 0 -1 1 0 2 -8 -1 -2 -0 -2 -2 -1 -1 -0 -0 -1 -0 0 -0 -1 -1 0 -0 -0 1 1 2 2 2 3 1 1 2 1 1 -0 0 -1 -0
2 5 5 -5 -12 -3 -2 -7 1 2 1 -1 0 7 -2 -0 0 2 2 -1 -0 -0 -1 1 -1 -1 0 -0 0 -0 -1 0 -0 -0 -1 -0 1 1 2 2 1 1 2 1 1 1 0 1 0
2 3 3 -4 -9 -3 -3 -2 -2 2 3 1 0 -1 -3 0 1 1 2 0 -0 -1 -0 -0 -0 -1 -0 0 -0 1 0 -0 1 -0 -0 -1 2 1 1 0 -0 1 1 0 -0 -1 0 1 -0
2 2 -2 -13 -8 -1 -2 -0 -3 0 1 1 -3 2 -1 1 2 1 1 1 1 1 0 -0 -0 -0 -0 0 -0 0 -0 -0 -0 1 0 1 -0 0 0 1 1 -0 0 -1 0 1 0 0 0
-3 1 -10 -3 -5 -2 6 4 -6 1 1 -1 -5 3 0 -0 -1 2 1 1 3 0 0 -1 -0 -0 0 -0 0 0 1 -0 -0 0 1 0 -1 1 1 1 1 -0 -0 -0 1 0 0 -1 -1
2 7 -3 -4 -7 -10 3 0 9 -2 3 3 2 -8 -6 -3 -2 0 2 2 4 1 1 1 -1 0 0 0 0 -1 1 1 -1 0 0 0 -2 1 1 -0 -0 0 0 1 1 -0 -0 0 -0
6 6 -10 -9 -7 -8 -1 2 3 1 -2 -1 -0 -3 -1 6 0 2 1 1 0 -0 1 2 1 1 1 0 -0 -1 0 0 0 -0 1 0 -1 1 1 -0 1 -1 -0 1 1 0 1 0 -1
3 -2 -17 -1 4 -4 3 2 5 1 -0 -3 -3 2 2 1 2 -2 -4 -4 -2 -3 -4 1 1 1 0 -1 0 -0 2 1 0 0 1 2 0 -1 -1 1 0 1 0 -0 0 -1 0 0 -0
1 -13 -0 -1 5 2 4 1 -4 2 -2 -6 -2 1 -0 0 1 1 3 8 6 5 0 -2 -0 -0 1 0 -1 1 2 -0 1 0 -0 0 1 2 -0 0 -0 1 -1 1 -0 -1 -0 -0 -0
-6 1 -4 5 5 -1 4 4 -3 -2 4 6 4 9 3 -2 -2 -2 -2 -0 -4 -1 3 3 1 2 1 1 1 0 2 -1 2 1 0 -1 -0 1 1 -1 -0 0 1 1 0 0 1 0 -1
-4 9 -4 0 6 4 3 1 4 -6 5 1 2 1 4 6 4 2 6 9 4 1 2 1 -2 -2 1 -0 1 1 0 1 1 0 1 0 1 0 1 1 -0 0 -0 2 1 0 0 1 0
7 1 -6 -2 4 4 4 2 3 -1 2 0 2 1 4 -0 2 6 1 3 3 5 4 3 1 -2 0 2 2 3 0 0 -0 -1 0 0 0 1 1 0 -0 -0 1 2 1 -0 -0 0 0
7 3 -2 -8 5 -1 8 -11 -18 2 2 1 -1 4 6 1 3 1 9 4 7 3 4 4 2 2 -1 2 2 2 1 3 -1 -1 -0 0 -1 1 0 0 -1 -1 1 1 2 0 -0 -1 -0
0 7 -1 9 8 7 4 -28 -2 6 3 4 3 4 6 -0 3 3 7 7 4 6 3 5 3 2 2 0 4 4 1 2 -1 -0 0 -1 -1 -0 1 0 0 -2 0 -0 0 1 1 0 -1
12 -8 -5 -3 6 9 -9 -1 1 5 2 2 4 4 6 1 0 -1 1 9 3 6 3 1 1 1 1 0 -0 4 2 1 0 -0 1 0 -1 0 -0 0 -0 -0 -1 -1 -0 -1 0 1 -1
-15 8 9 -4 -7 4 3 -0 -2 3 -1 2 3 5 4 2 1 0 2 4 7 9 11 7 2 0 0 0 -1 2 1 -2 -0 1 1 1 0 0 -0 -0 1 -1 -1 -2 -1 -0 -1 -0 1
11 -1 -5 -1 -7 7 -4 1 -2 6 1 2 2 0 2 5 1 3 3 9 6 5 3 1 0 1 -2 -2 -4 -4 -0 1 0 2 1 1 1 0 0 0 -1 -1 -2 -3 -1 -0 -1 -1 -1
26 -2 -6 2 -1 7 2 4 -7 4 -1 2 2 5 7 6 0 2 2 5 4 6 3 2 0 -0 0 -1 1 -1 4 1 4 3 1 0 0 1 -0 -1 0 -2 -0 -2 -3 -2 -2 -2 -2
3 20 2 -6 -8 12 1 7 -5 2 -0 6 3 1 6 6 5 2 2 2 5 6 8 3 2 2 0 1 0 3 5 6 1 -3 -1 1 1 2 -0 2 -0 -3 1 -0 -1 -0 1 -1 -3
6 4 17 3 -6 -9 4 -3 -7 -2 3 4 7 5 6 7 4 5 1 4 3 2 4 3 0 3 1 2 0 0 4 1 1 6 7 3 1 1 -0 1 -1 -2 -1 -0 -1 -2 -2 -2 -3
-17 3 -2 26 2 -1 6 9 -6 4 1 2 3 4 5 5 4 2 4 3 4 6 1 3 3 3 2 2 1 5 5 3 2 3 -1 -1 4 1 1 2 0 -2 -2 -2 -0 -0 -2 -1 -2
5 -4 -2 9 14 10 -7 -4 -0 -2 -3 3 4 5 3 3 5 2 5 4 1 2 4 4 3 -2 -0 2 1 2 1 1 0 1 2 -0 1 0 -2 -3 1 1 -1 -1 -1 -2 -1 -1 0
-3 15 5 7 14 -7 -4 18 -1 4 2 4 5 5 6 3 5 4 5 0 3 1 -5 -2 1 1 0 5 1 3 0 2 3 2 4 1 2 4 5 2 2 2 2 1 -0 2 -1 -0 -0
1 7 7 -6 -1 -7 15 2 -2 3 8 7 4 4 4 7 0 2 3 0 1 2 -7 -6 1 2 0 -2 -3 -1 1 0 1 1 2 2 1 2 1 1 -1 0 1 1 -0 1 1 -2 -1
2 2 -1 1 1 5 5 1 6 3 3 5 3 4 4 3 7 5 1 2 6 3 2 1 1 0 1 0 -2 0 1 1 1 1 1 2 1 1 2 2 2 2 2 2 0 0 1 -0 -0
7 3 4 4 1 2 -0 2 5 4 3 4 5 4 5 5 5 5 7 4 5 6 4 3 3 1 0 1 1 2 1 1 0 1 1 1 1 -0 0 0 0 1 1 1 0 1 1 1 0
-11 -5 0 -1 2 0 -1 1 5 4 3 3 4 4 4 4 2 3 5 8 4 5 1 3 3 3 1 0 1 1 2 1 0 0 1 0 -0 -0 1 2 0 -0 -0 -1 -0 1 1 1 1
3 1 4 1 -2 -0 -0 2 11 5 3 5 4 4 5 5 3 3 2 2 4 5 8 2 2 2 2 2 1 -0 0 -1 1 -1 -1 -0 0 0 1 -0 -0 0 -1 -0 -0 -0 2 1 1
Height
3125 3128 3131 3136 3142 3135 3131 3133 3135 3139 3143 3145 3147 3148 3150 3153 3154 3158 3155 3157 3159 3161 3162 3163 3164 3166 3168 3171 3174 3176 3178 3181 3183 3186 3188 3190 3192 3194 3196 3198 3199 3200 3201 3202 3202 3203 3204 3204 3204
3120 3124 3127 3128 3130 3125 3121 3127 3130 3138 3140 3141 3143 3146 3148 3150 3152 3155 3156 3157 3159 3161 3162 3163 3164 3166 3169 3171 3174 3176 3178 3181 3184 3186 3188 3191 3193 3195 3197 3199 3201 3202 3203 3204 3205 3205 3206 3206 3207
3115 3118 3123 3122 3120 3114 3115 3122 3131 3136 3137 3139 3141 3143 3145 3146 3150 3153 3156 3157 3159 3161 3162 3164 3165 3167 3169 3172 3174 3177 3179 3182 3184 3187 3189 3191 3194 3196 3198 3200 3201 3202 3204 3205 3206 3207 3208 3209 3209
3110 3113 3116 3112 3107 3110 3114 3121 3127 3130 3133 3135 3137 3139 3141 3144 3147 3151 3154 3156 3158 3160 3162 3164 3166 3168 3170 3172 3175 3178 3180 3182 3185 3187 3189 3192 3195 3196 3199 3200 3202 3203 3205 3206 3208 3209 3210 3211 3212
3105 3106 3107 3102 3101 3104 3111 3118 3123 3126 3128 3132 3134 3136 3138 3142 3145 3148 3152 3155 3157 3159 3162 3164 3166 3169 3171 3173 3176 3178 3180 3183 3186 3188 3190 3192 3195 3197 3199 3200 3202 3204 3206 3207 3209 3211 3212 3213 3213
3099 3100 3098 3093 3095 3100 3108 3115 3117 3122 3124 3128 3130 3133 3136 3139 3142 3146 3150 3153 3156 3158 3161 3164 3167 3169 3172 3174 3176 3179 3181 3184 3186 3189 3191 3193 3195 3198 3200 3201 3203 3205 3207 3208 3210 3212 3213 3214 3215
3091 3092 3089 3089 3091 3097 3103 3111 3111 3117 3121 3124 3126 3130 3133 3136 3140 3144 3148 3151 3154 3156 3160 3163 3166 3169 3172 3175 3177 3179 3182 3185 3187 3189 3191 3193 3195 3198 3200 3202 3204 3205 3207 3209 3211 3212 3213 3214 3215
3086 3086 3084 3083 3087 3092 3100 3105 3109 3112 3116 3120 3122 3123 3127 3133 3137 3141 3145 3148 3151 3154 3158 3161 3165 3169 3172 3174 3177 3180 3182 3185 3187 3189 3191 3193 3195 3197 3200 3202 3204 3206 3208 3210 3211 3212 3214 3215 3216
3079 3077 3072 3077 3083 3088 3095 3098 3103 3106 3110 3113 3117 3120 3125 3130 3134 3137 3140 3144 3148 3152 3155 3159 3163 3167 3171 3174 3176 3179 3182 3184 3187 3188 3191 3193 3195 3197 3200 3202 3205 3206 3208 3210 3211 3213 3214 3215 3217
3067 3062 3063 3075 3079 3085 3090 3093 3096 3100 3103 3106 3110 3115 3119 3124 3129 3132 3137 3141 3145 3148 3152 3157 3161 3165 3169 3172 3176 3179 3181 3184 3186 3188 3190 3193 3195 3197 3199 3202 3204 3206 3208 3210 3212 3213 3214 3216 3217
3056 3049 3063 3070 3075 3081 3083 3086 3089 3092 3094 3099 3105 3111 3115 3119 3124 3128 3133 3138 3143 3147 3151 3155 3159 3163 3167 3170 3174 3178 3181 3183 3185 3188 3190 3192 3195 3197 3199 3202 3204 3206 3207 3210 3212 3213 3214 3215 3217
3049 3049 3058 3066 3069 3073 3077 3080 3082 3085 3091 3096 3102 3109 3113 3116 3120 3124 3128 3133 3138 3143 3148 3152 3157 3161 3164 3168 3173 3177 3179 3182 3184 3187 3189 3192 3194 3197 3199 3201 3203 3206 3207 3210 3211 3213 3214 3215 3217
3040 3045 3053 3060 3063 3065 3069 3072 3076 3079 3085 3089 3095 3100 3107 3113 3117 3121 3125 3130 3134 3139 3145 3150 3155 3159 3163 3166 3171 3175 3178 3180 3183 3186 3189 3191 3194 3197 3199 3201 3203 3205 3208 3209 3211 3212 3214 3215 3217
3033 3039 3045 3052 3054 3057 3061 3066 3067 3073 3079 3083 3088 3094 3101 3107 3112 3115 3119 3124 3130 3136 3142 3147 3152 3157 3161 3165 3168 3172 3176 3179 3182 3185 3187 3191 3193 3196 3198 3200 3203 3205 3207 3209 3211 3212 3213 3215 3216
3029 3034 3037 3038 3044 3047 3053 3056 3054 3068 3073 3078 3083 3089 3096 3102 3107 3111 3117 3122 3128 3133 3138 3143 3149 3154 3158 3162 3165 3169 3173 3177 3180 3183 3186 3189 3192 3194 3197 3200 3202 3204 3206 3208 3210 3212 3213 3215 3216
3022 3027 3027 3028 3036 3040 3048 3035 3053 3062 3067 3072 3078 3084 3091 3097 3103 3108 3113 3118 3123 3128 3134 3140 3145 3150 3156 3159 3162 3166 3170 3174 3178 3181 3184 3187 3190 3193 3196 3198 3201 3203 3206 3207 3209 3211 3212 3214 3216
3015 3007 3010 3024 3028 3032 3037 3032 3047 3054 3060 3066 3071 3077 3084 3091 3097 3102 3107 3113 3120 3126 3131 3136 3142 3147 3151 3156 3158 3162 3166 3171 3175 3178 3182 3185 3188 3191 3193 3196 3199 3201 3204 3206 3208 3210 3212 3213 3215
2997 3002 3008 3013 3021 3024 3028 3028 3041 3048 3055 3061 3066 3071 3078 3085 3091 3096 3102 3109 3115 3122 3128 3133 3138 3142 3146 3151 3154 3157 3162 3167 3171 3175 3179 3182 3185 3188 3191 3194 3197 3199 3202 3205 3206 3208 3210 3212 3214
2998 3001 3005 3010 3016 3021 3022 3026 3035 3043 3050 3056 3060 3064 3070 3079 3086 3092 3098 3104 3110 3116 3122 3127 3132 3137 3141 3145 3149 3153 3158 3163 3168 3172 3175 3179 3183 3186 3189 3191 3194 3197 3199 3202 3204 3206 3208 3210 3211
2988 2992 2998 3004 3010 3015 3018 3020 3030 3035 3042 3049 3054 3059 3066 3073 3080 3087 3093 3099 3105 3111 3117 3122 3127 3132 3137 3142 3147 3152 3157 3161 3166 3170 3174 3177 3180 3184 3187 3190 3192 3195 3197 3199 3202 3204 3206 3207 3209
2978 2982 2989 2996 3004 3009 3013 3017 3022 3027 3033 3040 3047 3053 3059 3066 3074 3080 3087 3094 3100 3106 3111 3117 3122 3127 3133 3139 3144 3149 3153 3158 3162 3166 3170 3174 3177 3181 3184 3188 3190 3192 3195 3197 3198 3201 3203 3205 3207
2969 2978 2983 2990 2996 3001 3007 3007 3014 3018 3024 3031 3038 3044 3050 3058 3066 3074 3081 3087 3094 3100 3106 3111 3117 3123 3129 3134 3140 3144 3149 3153 3159 3163 3168 3171 3175 3179 3182 3184 3187 3189 3191 3193 3195 3197 3199 3201 3203
2968 2974 2979 2983 2987 2993 2998 3007 3003 3011 3016 3024 3030 3037 3043 3050 3057 3065 3073 3080 3087 3093 3099 3105 3111 3117 3124 3129 3134 3139 3144 3149 3154 3158 3162 3167 3171 3175 3178 3181 3182 3185 3188 3190 3192 3194 3196 3198 3199
2966 2970 2976 2978 2979 2981 2984 2992 2995 3001 3005 3013 3021 3029 3036 3043 3050 3058 3065 3072 3079 3087 3094 3100 3105 3111 3117 3124 3129 3134 3139 3144 3149 3153 3157 3161 3165 3169 3173 3175 3178 3181 3183 3186 3188 3189 3191 3193 3195
2964 2967 2970 2972 2966 2965 2977 2987 2985 2992 2997 3008 3016 3022 3028 3035 3043 3050 3058 3066 3073 3080 3087 3093 3099 3106 3112 3118 3123 3128 3134 3139 3144 3148 3152 3155 3160 3164 3168 3170 3173 3176 3179 3181 3183 3185 3188 3189 3190
2960 2963 2960 2953 2952 2959 2970 2974 2977 2987 2992 3000 3009 3016 3022 3029 3036 3044 3051 3059 3066 3073 3081 3087 3094 3100 3106 3111 3116 3122 3128 3133 3137 3141 3145 3149 3154 3158 3161 3164 3167 3170 3173 3175 3177 3180 3183 3184 3185
2961 2960 2963 2959 2956 2954 2966 2973 2977 2981 2988 2994 3002 3008 3016 3023 3030 3037 3045 3052 3058 3065 3073 3079 3086 3093 3099 3105 3111 3116 3121 3126 3131 3135 3139 3143 3147 3151 3154 3157 3161 3164 3167 3170 3172 3175 3177 3179 3180
2958 2961 2960 2957 2955 2948 2965 2969 2974 2979 2984 2989 2995 3002 3008 3015 3023 3029 3035 3043 3050 3057 3065 3072 3079 3086 3092 3099 3104 3109 3114 3119 3124 3128 3131 3136 3140 3143 3147 3151 3155 3158 3161 3164 3167 3169 3171 3172 3174
2962 2961 2960 2959 2959 2955 2964 2976 2974 2977 2981 2986 2991 2997 3003 3009 3016 3023 3029 3035 3043 3049 3058 3065 3071 3078 3085 3091 3097 3102 3107 3112 3116 3120 3124 3128 3132 3135 3139 3144 3147 3151 3154 3157 3159 3162 3164 3165 3166
2968 2966 2963 2961 2961 2960 2961 2978 2976 2976 2980 2984 2987 2992 2998 3004 3010 3017 3023 3029 3036 3042 3049 3057 3063 3070 3077 3083 3090 3096 3100 3104 3108 3112 3116 3120 3124 3128 3131 3135 3139 3143 3147 3149 3151 3153 3155 3157 3159